N8QF-1 Weather Reports


time (UTC)temp
C
wind
direction
speed
KPH
gust
KPH
rain 1hr
cm
rain 24hr
cm
rain mn
cm
humidity
%
barometer
mb
20260902231750 33 226 6.4 16.1 0.00 0.00 0.00 46 1015.9
20260902231249 33 245 11.3 16.1 0.00 0.00 0.00 46 1015.8
20260902230749 33 217 9.7 17.7 0.00 0.00 0.00 46 1015.9
20260902230248 33 229 8.0 14.5 0.00 0.00 0.00 46 1015.9
20260902225247 33 260 14.5 19.3 0.00 0.00 0.00 45 1015.9
20260902224747 33 239 9.7 14.5 0.00 0.00 0.00 44 1015.9
20260902224246 33 212 11.3 16.1 0.00 0.00 0.00 44 1015.9
20260902223746 33 243 9.7 17.7 0.00 0.00 0.00 44 1016.0
20260902222745 33 239 11.3 19.3 0.00 0.00 0.00 43 1016.0
20260902222244 33 276 11.3 19.3 0.00 0.00 0.00 44 1016.0
20260902221743 33 222 9.7 14.5 0.00 0.00 0.00 43 1015.9
20260902221243 34 255 8.0 20.9 0.00 0.00 0.00 43 1016.0
20260902220743 34 263 6.4 19.3 0.00 0.00 0.00 43 1015.9
20260902220242 33 252 14.5 25.7 0.00 0.00 0.00 41 1016.0
20260902215240 33 283 11.3 19.3 0.00 0.00 0.00 43 1016.0
20260902214238 33 239 19.3 24.1 0.00 0.00 0.00 42 1016.1
20260902213734 34 245 8.0 24.1 0.00 0.00 0.00 42 1016.1
20260902212233 33 221 8.0 19.3 0.00 0.00 0.00 42 1016.1
20260902211232 33 208 17.7 25.7 0.00 0.00 0.00 41 1016.2
20260902210730 33 249 16.1 25.7 0.00 0.00 0.00 41 1016.2
20260902210230 33 229 11.3 25.7 0.00 0.00 0.00 41 1016.3
20260902205729 34 236 9.7 22.5 0.00 0.00 0.00 41 1016.3
20260902205229 34 274 9.7 17.7 0.00 0.00 0.00 42 1016.4
20260902204728 34 270 9.7 17.7 0.00 0.00 0.00 42 1016.4
20260902204228 33 287 11.3 19.3 0.00 0.00 0.00 43 1016.4
20260902203727 33 242 12.9 20.9 0.00 0.00 0.00 42 1016.4
20260902203227 34 264 9.7 19.3 0.00 0.00 0.00 42 1016.5
20260902202726 33 274 17.7 30.6 0.00 0.00 0.00 42 1016.5
20260902202225 33 271 17.7 24.1 0.00 0.00 0.00 42 1016.5
20260902201725 33 269 8.0 17.7 0.00 0.00 0.00 43 1016.5
20260902201224 34 271 9.7 30.6 0.00 0.00 0.00 42 1016.5
20260902200724 34 280 11.3 24.1 0.00 0.00 0.00 42 1016.6
20260902200223 33 248 12.9 20.9 0.00 0.00 0.00 42 1016.6
20260902195723 34 240 14.5 27.4 0.00 0.00 0.00 41 1016.6
20260902195222 34 65 4.8 17.7 0.00 0.00 0.00 42 1016.7
20260902194722 33 214 16.1 27.4 0.00 0.00 0.00 42 1016.8
20260902194221 33 259 12.9 22.5 0.00 0.00 0.00 42 1016.8
20260902193721 33 233 16.1 25.7 0.00 0.00 0.00 41 1016.9
20260902193220 33 255 17.7 29.0 0.00 0.00 0.00 42 1017.0
20260902192218 33 217 11.3 17.7 0.00 0.00 0.00 43 1017.0
20260902191217 33 240 11.3 19.3 0.00 0.00 0.00 42 1017.1
20260902190717 33 248 14.5 27.4 0.00 0.00 0.00 41 1017.2
20260902190216 33 243 12.9 16.1 0.00 0.00 0.00 42 1017.3
20260902185716 33 225 12.9 25.7 0.00 0.00 0.00 41 1017.3
20260902185215 34 242 12.9 20.9 0.00 0.00 0.00 41 1017.3
20260902184714 34 155 6.4 20.9 0.00 0.00 0.00 41 1017.3
20260902184214 33 255 11.3 19.3 0.00 0.00 0.00 41 1017.4
20260902183713 33 242 9.7 17.7 0.00 0.00 0.00 42 1017.3
20260902183213 33 222 9.7 20.9 0.00 0.00 0.00 42 1017.5
20260902182712 33 238 12.9 25.7 0.00 0.00 0.00 43 1017.6
20260902182212 33 201 14.5 24.1 0.00 0.00 0.00 42 1017.6
20260902181711 33 217 16.1 19.3 0.00 0.00 0.00 42 1017.6
20260902181211 33 269 4.8 22.5 0.00 0.00 0.00 44 1017.5
20260902180710 33 203 16.1 25.7 0.00 0.00 0.00 43 1017.6
20260902180210 33 219 11.3 25.7 0.00 0.00 0.00 45 1017.6
20260902175709 33 288 16.1 22.5 0.00 0.00 0.00 45 1017.7
20260902175209 33 267 16.1 20.9 0.00 0.00 0.00 44 1017.8
20260902174708 33 242 11.3 17.7 0.00 0.00 0.00 44 1017.8
20260902174208 33 231 11.3 24.1 0.00 0.00 0.00 45 1017.9
20260902173707 33 263 17.7 22.5 0.00 0.00 0.00 44 1018.1
20260902173207 33 260 16.1 22.5 0.00 0.00 0.00 47 1018.1
20260902171705 32 228 14.5 25.7 0.00 0.00 0.00 47 1018.3
20260902171205 32 271 19.3 25.7 0.00 0.00 0.00 46 1018.4
20260902170704 32 278 12.9 22.5 0.00 0.00 0.00 46 1018.3
20260902170204 33 273 11.3 22.5 0.00 0.00 0.00 47 1018.3
20260902165703 32 293 14.5 17.7 0.00 0.00 0.00 47 1018.3
20260902165202 32 248 9.7 22.5 0.00 0.00 0.00 48 1018.3
20260902164702 32 270 11.3 19.3 0.00 0.00 0.00 47 1018.3
20260902164201 32 266 8.0 17.7 0.00 0.00 0.00 49 1018.3
20260902163701 32 271 9.7 11.3 0.00 0.00 0.00 49 1018.4
20260902162700 32 276 12.9 17.7 0.00 0.00 0.00 50 1018.4
20260902162159 32 218 11.3 11.3 0.00 0.00 0.00 49 1018.6
20260902161659 32 256 4.8 16.1 0.00 0.00 0.00 52 1018.4
20260902161158 31 263 12.9 17.7 0.00 0.00 0.00 52 1018.4
20260902160658 31 240 8.0 16.1 0.00 0.00 0.00 53 1018.4
20260902160157 31 256 9.7 16.1 0.00 0.00 0.00 54 1018.4
20260902155657 31 225 9.7 20.9 0.00 0.00 0.00 54 1018.6
20260902155156 31 291 12.9 14.5 0.00 0.00 0.00 53 1018.6
20260902154656 31 197 6.4 14.5 0.00 0.00 0.00 55 1018.6
20260902154155 31 271 9.7 14.5 0.00 0.00 0.00 55 1018.6
20260902153655 31 305 8.0 20.9 0.00 0.00 0.00 56 1018.7
20260902153154 30 214 14.5 14.5 0.00 0.00 0.00 57 1018.8
20260902152654 30 302 8.0 14.5 0.00 0.00 0.00 57 1018.7
20260902152153 30 253 9.7 16.1 0.00 0.00 0.00 58 1018.8
20260902151653 30 232 8.0 12.9 0.00 0.00 0.00 59 1018.8
20260902151152 30 232 9.7 12.9 0.00 0.00 0.00 59 1018.9
20260902145649 29 214 6.4 16.1 0.00 0.00 0.00 61 1018.9
20260902145149 29 221 9.7 11.3 0.00 0.00 0.00 60 1018.8
20260902144648 29 253 8.0 12.9 0.00 0.00 0.00 60 1018.9
20260902144148 28 217 6.4 12.9 0.00 0.00 0.00 61 1018.9
20260902143147 28 214 3.2 12.9 0.00 0.00 0.00 62 1018.8
20260902142646 28 212 6.4 11.3 0.00 0.00 0.00 62 1018.9
20260902142146 28 194 3.2 11.3 0.00 0.00 0.00 63 1018.8
20260902141645 28 94 4.8 12.9 0.00 0.00 0.00 64 1018.8
20260902141145 28 293 6.4 14.5 0.00 0.00 0.00 64 1018.9
20260902140644 27 238 6.4 14.5 0.00 0.00 0.00 65 1018.8
20260902140144 27 208 9.7 14.5 0.00 0.00 0.00 65 1018.8
20260902135643 27 218 11.3 12.9 0.00 0.00 0.00 65 1018.8
20260902135143 27 215 4.8 12.9 0.00 0.00 0.00 66 1018.8
20260902134723 27 214 8.0 8.0 0.00 0.00 0.00 66 1018.8
20260902134640 27 214 8.0 8.0 0.00 0.00 0.00 66 1018.8
20260902134139 27 239 4.8 12.9 0.00 0.00 0.00 67 1018.8
20260902133638 27 298 9.7 12.9 0.00 0.00 0.00 67 1018.9
20260902132636 26 266 9.7 14.5 0.00 0.00 0.00 69 1018.8
20260902132134 26 242 6.4 8.0 0.00 0.00 0.00 69 1018.7
20260902131634 26 300 6.4 11.3 0.00 0.00 0.00 70 1018.8
20260902130633 26 240 4.8 11.3 0.00 0.00 0.00 71 1018.8
20260902130131 26 211 1.6 14.5 0.00 0.00 0.00 72 1018.8
20260902125631 26 270 9.7 14.5 0.00 0.00 0.00 72 1018.9
20260902125130 26 264 4.8 12.9 0.00 0.00 0.00 73 1018.9
20260902124630 25 253 8.0 9.7 0.00 0.00 0.00 74 1018.8
20260902124129 25 238 1.6 6.4 0.00 0.00 0.00 76 1018.8
20260902123629 25 212 1.6 3.2 0.00 0.00 0.00 77 1018.7
20260902122127 25 66 0.0 0.0 0.00 0.00 0.00 79 1018.7
20260902121627 25 66 0.0 0.0 0.00 0.00 0.00 80 1018.7
20260902121202 24 66 0.0 0.0 0.00 0.00 0.00 80 1018.6
20260902121126 24 66 0.0 0.0 0.00 0.00 0.00 80 1018.6
20260902120623 24 66 0.0 0.0 0.00 0.00 0.00 81 1018.6
20260902120123 24 66 0.0 0.0 0.00 0.00 0.00 82 1018.6
20260902115123 23 66 0.0 0.0 0.00 0.00 0.00 83 1018.4
20260902114621 23 66 0.0 0.0 0.00 0.00 0.00 84 1018.3
20260902114121 23 66 0.0 0.0 0.00 0.00 0.00 84 1018.2
20260902113620 23 66 0.0 0.0 0.00 0.00 0.00 85 1018.1
20260902113120 23 66 0.0 0.0 0.00 0.00 0.00 85 1018.1
20260902112619 23 66 0.0 0.0 0.00 0.00 0.00 84 1018.0
20260902112119 23 66 0.0 0.0 0.00 0.00 0.00 85 1018.0
20260902111619 23 66 0.0 0.0 0.00 0.00 0.00 85 1018.0
20260902111118 23 66 0.0 0.0 0.00 0.00 0.00 84 1017.9
20260902110617 23 66 0.0 0.0 0.00 0.00 0.00 84 1017.9
20260902110116 23 66 0.0 0.0 0.00 0.00 0.00 85 1017.9
20260902105615 23 66 0.0 0.0 0.00 0.00 0.00 84 1017.8
20260902105115 23 66 0.0 0.0 0.00 0.00 0.00 84 1017.8
20260902104614 23 66 0.0 0.0 0.00 0.00 0.00 84 1017.9
20260902104114 23 66 0.0 3.2 0.00 0.00 0.00 84 1017.9
20260902103613 23 66 1.6 3.2 0.00 0.00 0.00 84 1018.0
20260902103113 23 93 0.0 0.0 0.00 0.00 0.00 84 1017.9
20260902102612 23 93 0.0 1.6 0.00 0.00 0.00 84 1017.9
20260902102111 23 93 0.0 3.2 0.00 0.00 0.00 84 1017.9
20260902101611 23 110 0.0 3.2 0.00 0.00 0.00 84 1017.9
20260902101111 23 111 0.0 3.2 0.00 0.00 0.00 83 1017.9
20260902100610 23 145 0.0 4.8 0.00 0.00 0.00 83 1017.9
20260902100109 23 117 3.2 0.0 0.00 0.00 0.00 83 1017.8
20260902095609 23 68 0.0 3.2 0.00 0.00 0.00 83 1017.8
20260902095108 23 68 0.0 4.8 0.00 0.00 0.00 83 1017.8
20260902094608 23 98 0.0 1.6 0.00 0.00 0.00 82 1017.8
20260902094107 23 79 0.0 0.0 0.00 0.00 0.00 82 1017.7
20260902093607 23 91 0.0 0.0 0.00 0.00 0.00 82 1017.8
20260902093108 23 91 0.0 0.0 0.00 0.00 0.00 82 1017.8
20260902092606 23 91 0.0 0.0 0.00 0.00 0.00 82 1017.8
20260902092105 23 91 0.0 0.0 0.00 0.00 0.00 81 1017.7
20260902091605 24 91 0.0 0.0 0.00 0.00 0.00 81 1017.8
20260902091104 24 91 0.0 0.0 0.00 0.00 0.00 81 1017.8
20260902090604 24 91 0.0 0.0 0.00 0.00 0.00 81 1017.7
20260902090104 24 91 0.0 0.0 0.00 0.00 0.00 80 1017.6
20260902085603 24 91 0.0 0.0 0.00 0.00 0.00 80 1017.6
20260902085102 24 91 0.0 0.0 0.00 0.00 0.00 80 1017.5
20260902084602 24 91 0.0 0.0 0.00 0.00 0.00 80 1017.5
20260902084100 24 91 0.0 0.0 0.00 0.00 0.00 80 1017.5
20260902083559 24 91 0.0 0.0 0.00 0.00 0.00 80 1017.4
20260902083059 24 91 0.0 0.0 0.00 0.00 0.00 79 1017.3
20260902082558 24 91 0.0 0.0 0.00 0.00 0.00 79 1017.3
20260902082058 24 91 0.0 0.0 0.00 0.00 0.00 79 1017.4
20260902081557 24 91 0.0 0.0 0.00 0.00 0.00 79 1017.3
20260902081057 25 91 0.0 0.0 0.00 0.00 0.00 78 1017.3
20260902080556 25 91 0.0 0.0 0.00 0.00 0.00 78 1017.3
20260902080056 25 91 0.0 0.0 0.00 0.00 0.00 78 1017.3
20260902075554 25 91 0.0 1.6 0.00 0.00 0.00 78 1017.3
20260902074552 25 193 0.0 1.6 0.00 0.00 0.00 78 1017.3
20260902074051 25 193 0.0 0.0 0.00 0.00 0.00 77 1017.2
20260902073550 25 46 0.0 1.6 0.00 0.00 0.00 78 1017.2
20260902073050 25 46 0.0 3.2 0.00 0.00 0.00 77 1017.3
20260902072549 25 238 0.0 0.0 0.00 0.00 0.00 77 1017.3
20260902071548 25 238 0.0 0.0 0.00 0.00 0.00 77 1017.1
20260902071048 25 238 0.0 0.0 0.00 0.00 0.00 75 1017.2
20260902070547 25 238 0.0 0.0 0.00 0.00 0.00 75 1017.2
20260902070046 25 238 0.0 0.0 0.00 0.00 0.00 75 1017.2
20260902065546 25 238 0.0 0.0 0.00 0.00 0.00 74 1017.2
20260902064044 26 238 0.0 0.0 0.00 0.00 0.00 71 1017.2
20260902063543 26 238 0.0 3.2 0.00 0.00 0.00 71 1017.2
20260902063042 26 238 0.0 4.8 0.00 0.00 0.00 71 1017.2
20260902062542 26 210 1.6 4.8 0.00 0.00 0.00 71 1017.3
20260902061540 26 257 3.2 4.8 0.00 0.00 0.00 71 1017.4
20260902061039 26 263 1.6 1.6 0.00 0.00 0.00 72 1017.4
20260902060539 26 256 0.0 0.0 0.00 0.00 0.00 72 1017.4
20260902055538 26 195 0.0 0.0 0.00 0.00 0.00 71 1017.4
20260902055037 26 195 0.0 0.0 0.00 0.00 0.00 71 1017.4
20260902054537 26 195 0.0 0.0 0.00 0.00 0.00 71 1017.4
20260902054036 26 195 0.0 0.0 0.00 0.00 0.00 71 1017.4
20260902053034 26 195 0.0 0.0 0.00 0.00 0.00 71 1017.4
20260902052534 26 195 0.0 0.0 0.00 0.00 0.00 71 1017.4
20260902051532 26 195 0.0 0.0 0.00 0.00 0.00 70 1017.4
20260902050532 26 195 0.0 0.0 0.00 0.00 0.00 69 1017.3
20260902050031 26 195 0.0 0.0 0.00 0.00 0.00 69 1017.2
20260902045530 26 195 0.0 0.0 0.00 0.00 0.00 69 1017.3
20260902045030 26 195 0.0 0.0 0.00 0.00 0.00 69 1017.3
20260902044529 26 195 0.0 0.0 0.00 0.00 0.00 69 1017.3
20260902044030 26 195 0.0 0.0 0.00 0.00 0.00 69 1017.3
20260902043027 26 195 0.0 0.0 0.00 0.00 0.00 68 1017.4
20260902042526 26 195 0.0 0.0 0.00 0.00 0.00 68 1017.4
20260902042026 27 195 0.0 0.0 0.00 0.00 0.00 67 1017.4
20260902041525 27 195 0.0 0.0 0.00 0.00 0.00 67 1017.5
20260902041024 27 195 0.0 0.0 0.00 0.00 0.00 67 1017.5
20260902040523 27 195 0.0 0.0 0.00 0.00 0.00 66 1017.5
20260902040023 27 195 0.0 0.0 0.00 0.00 0.00 66 1017.5
20260902035522 27 195 0.0 0.0 0.00 0.00 0.00 65 1017.4
20260902035022 27 195 0.0 0.0 0.00 0.00 0.00 64 1017.5
20260902034521 27 195 0.0 0.0 0.00 0.00 0.00 64 1017.5
20260902034020 28 195 0.0 0.0 0.00 0.00 0.00 63 1017.4
20260902033520 28 195 0.0 0.0 0.00 0.00 0.00 62 1017.5
20260902033019 28 195 0.0 0.0 0.00 0.00 0.00 61 1017.4
20260902032519 28 195 0.0 0.0 0.00 0.00 0.00 60 1017.4
20260902032018 28 195 0.0 0.0 0.00 0.00 0.00 60 1017.4
20260902031518 28 195 0.0 0.0 0.00 0.00 0.00 59 1017.4
20260902031017 29 195 0.0 4.8 0.00 0.00 0.00 58 1017.3
20260902030516 29 245 3.2 4.8 0.00 0.00 0.00 57 1017.4
20260902030015 29 233 3.2 8.0 0.00 0.00 0.00 57 1017.3
20260902025014 29 248 3.2 8.0 0.00 0.00 0.00 57 1017.4
20260902024601 29 211 4.8 6.4 0.00 0.00 0.00 57 1017.2
20260902024514 29 211 4.8 6.4 0.00 0.00 0.00 57 1017.2
20260902024013 30 128 4.8 4.8 0.00 0.00 0.00 56 1017.2
20260902023513 30 184 1.6 4.8 0.00 0.00 0.00 56 1017.2
20260902023012 30 212 3.2 9.7 0.00 0.00 0.00 55 1017.3
20260902022512 30 245 3.2 6.4 0.00 0.00 0.00 55 1017.3
20260902022011 30 224 3.2 8.0 0.00 0.00 0.00 54 1017.3
20260902021511 30 239 6.4 8.0 0.00 0.00 0.00 54 1017.2
20260902021010 30 231 4.8 6.4 0.00 0.00 0.00 54 1017.3
20260902020009 30 211 4.8 4.8 0.00 0.00 0.00 53 1017.2
20260902015508 30 228 3.2 8.0 0.00 0.00 0.00 53 1017.2
20260902015008 30 226 3.2 4.8 0.00 0.00 0.00 53 1017.1
20260902014507 30 249 3.2 6.4 0.00 0.00 0.00 52 1017.1
20260902014007 31 271 0.0 9.7 0.00 0.00 0.00 52 1017.1
20260902013506 31 284 3.2 11.3 0.00 0.00 0.00 51 1017.0
20260902013006 31 245 6.4 9.7 0.00 0.00 0.00 51 1017.1
20260902012505 31 250 4.8 6.4 0.00 0.00 0.00 50 1016.9
20260902012005 31 271 0.0 6.4 0.00 0.00 0.00 50 1016.8
20260902011504 31 219 3.2 9.7 0.00 0.00 0.00 49 1016.8
20260902011004 31 219 4.8 12.9 0.00 0.00 0.00 49 1016.8
20260902010503 31 201 8.0 9.7 0.00 0.00 0.00 49 1016.8
20260902010003 31 204 3.2 11.3 0.00 0.00 0.00 49 1016.7
20260902005502 31 165 6.4 11.3 0.00 0.00 0.00 49 1016.7
20260902005002 31 201 6.4 11.3 0.00 0.00 0.00 49 1016.6
20260902004501 31 203 8.0 12.9 0.00 0.00 0.00 49 1016.6
20260902004001 31 218 4.8 8.0 0.00 0.00 0.00 48 1016.6
20260902003000 31 240 3.2 6.4 0.00 0.00 0.00 48 1016.6
20260902002459 31 201 3.2 8.0 0.00 0.00 0.00 48 1016.5
20260902001958 32 210 3.2 8.0 0.00 0.00 0.00 47 1016.6
20260902001458 32 224 4.8 11.3 0.00 0.00 0.00 46 1016.7
20260902000957 32 222 3.2 11.3 0.00 0.00 0.00 46 1016.7
20260902000458 32 215 4.8 11.3 0.00 0.00 0.00 46 1016.8
20260901235956 32 224 6.4 6.4 0.00 0.00 0.00 46 1016.8
20260901235456 32 191 4.8 6.4 0.00 0.00 0.00 46 1016.8
20260901234955 32 215 4.8 8.0 0.00 0.00 0.00 45 1016.8
20260901234455 32 225 4.8 9.7 0.00 0.00 0.00 45 1016.8
20260901233954 32 264 4.8 14.5 0.00 0.00 0.00 45 1016.8
20260901233454 32 218 9.7 12.9 0.00 0.00 0.00 45 1016.9
20260901232953 33 243 9.7 14.5 0.00 0.00 0.00 45 1016.9
20260901232453 33 242 8.0 12.9 0.00 0.00 0.00 44 1016.9
20260901231952 33 256 9.7 12.9 0.00 0.00 0.00 44 1016.9